sat.trackr.live / text

‹ back to catalog

STARLINK-37036

NORAD 68077 · 2026-042J

PAYLOAD ACTIVE UNKNOWN

§ Identity

Operator
Country
US
Launch date
2026-03-04
Launch site
AFETR
Launch vehicle
Mass (kg)
RCS (m²)

Purposes: comms

External: N2YO · Heavens-Above · Gunter

§ Orbital elements

Epoch: 2026-05-25T01:45:56.011680Z

Period
93.85 min
Inclination
53.1584°
Eccentricity
0.0001609
Mean motion
15.34404880 rev/d
Perigee alt
461.6 km
Apogee alt
463.8 km
Semi-major
6,840.8 km
B*
4.0887e-4
RAAN
181.5171°
Arg perigee
84.0661°
Mean anomaly
276.0525°
Rev number
1,403

§ Raw data

STARLINK-370361 68077U 26042J   26145.07356495  .00013465  00000+0  40887-3 0  99972 68077  53.1584 181.5171 0001609  84.0661 276.0525 15.34404880 14033

JSON: /api/v1/satellites/68077 · /tle

For live sub-satellite position, see the globe view (requires WebGL).

§ Visibility from observer

Set your observer location to see the next 7 days of passes ≥ 10°. The values pass through the URL so the page stays shareable.

No JS? Fill the form by hand. The geolocation button needs JavaScript.